Back to catalog

STARLINK-37210

AliveCommunicationsVLEO
NORAD 68557·PAYLOAD·🇺🇸 United States

Launched Apr 2, 2026 from Cape Canaveral Space Force Station

Loading…

Next Passes (next 24 hours)

TLE

FreshSource: CelesTrak SupGP

Epoch: Sep 14, 2026, 21:17 UTC

1 68557C 26070R   26257.88729167  .00017624  00000+0  52053-3 0  2570
2 68557  53.1578 199.8630 0001328  90.2965  25.6949 15.34392119    17

Track STARLINK-37210 in real time with AllMySat

Download on the App Store